Flag for Germany Weather past 2 weeks in Papenburg, Lower Saxony, Germany

Now
60 °F

Sunny.


Feels Like: 60 °F
Forecast: 57 / 77 °F
Wind: 6 mph from Southeast

Location: Emden-Koenigspolder

Current Time: Aug 3, 2015 at 8:41:55 AM

Latest Report: Aug 3, 2015 at 8:00 AM


Visibility: 9 mi

Pressure: 29.98 "Hg

Humidity: 77%

Dew point: 53 °F

Location of PapenburgLocation

Historic Weather in Papenburg — Graph

°F

Papenburg temperature yesterday

Maximum temperature yesterday: 73 °F (at 3:00 PM)
Minimum temperature yesterday: 47 °F (at 6:00 AM)
Average temperature yesterday: 64 °F

Past Weeks' High & Low Weather Summary

 TemperatureHumidityPressure
High74 °F (Jul 22, 1:00 PM)100% (Jul 22, 5:00 AM)30.14 "Hg (Jul 22, 5:00 AM)
Low44 °F (Aug 1, 7:00 AM)44% (Aug 1, 4:00 PM)29.35 "Hg (Jul 25, 2:00 PM)
Average61 °F79%29.82 "Hg
* Reported Jul 19 7:00 AM — Aug 3 7:00 AM, Papenburg, Weather by CustomWeather, © 2015

Note: Actual official high and low records may vary slightly from our data, if they occured in-between our weather recording intervals... More about our weather records

Advertising

Papenburg weather history for previous 24 hours

 ConditionsComfort  
Time TempWeatherWind HumidityBarometerVisibility
7:00 AM
Mon, Aug 3
57 °FSunny.5 mph83%29.99 "Hg10 mi
6:00 AM55 °FSunny.3 mph85%30.01 "Hg10 mi
5:00 AM55 °FClear.3 mph85%30.03 "Hg10 mi
4:00 AM56 °FPassing clouds.3 mph82%30.05 "Hg11 mi
3:00 AM55 °FClear.3 mph84%30.06 "Hg11 mi
2:00 AM53 °FClear.2 mph97%30.08 "Hg5 mi
1:00 AM53 °FFog.2 mph97%30.09 "Hg4 mi
10:00 PM
Sun, Aug 2
59 °FFog.2 mph85%30.10 "Hg2 mi
9:00 PM64 °FOvercast.3 mph74%30.09 "Hg15 mi
8:00 PM69 °FOvercast.3 mph66%30.09 "Hg15 mi
7:00 PM71 °FOvercast.5 mph63%30.10 "Hg10 mi
6:00 PM73 °FOvercast.2 mph49%30.11 "Hg25 mi
5:00 PM73 °FOvercast.2 mph47%30.11 "Hg25 mi
4:00 PM73 °FOvercast.2 mph47%30.12 "Hg22 mi
3:00 PM73 °FOvercast.2 mph46%30.13 "Hg13 mi
2:00 PM72 °FPassing clouds.3 mph48%30.14 "Hg9 mi
1:00 PM70 °FOvercast.3 mph49%30.14 "Hg19 mi
12:00 PM69 °FOvercast.3 mph49%30.14 "Hg19 mi
11:00 AM66 °FOvercast.3 mph54%30.13 "Hg16 mi
10:00 AM64 °FOvercast.3 mph67%30.12 "Hg11 mi
9:00 AM61 °FSunny.3 mph73%30.11 "Hg10 mi
8:00 AM58 °FSunny.3 mph77%30.10 "Hg12 mi
Weather by CustomWeather, © 2015

See weather overviewHow to use our weather pages